K5BOU Weather Reports


time (UTC)temp
C
wind
direction
speed
KPH
gust
KPH
rain 1hr
cm
rain 24hr
cm
rain mn
cm
humidity
%
barometer
mb
20260905164909 33 231 0.0 1.6 0.00 0.00 0.00 70 1012.6
20260905164403 33 195 0.0 3.2 0.00 0.00 0.00 70 1012.7
20260905163858 32 329 4.8 8.0 0.00 0.00 0.00 73 1012.7
20260905163355 33 354 8.0 9.7 0.00 0.00 0.00 71 1012.4
20260905162850 33 193 0.0 3.2 0.00 0.00 0.00 73 1012.6
20260905162350 32 194 1.6 3.2 0.00 0.00 0.00 71 1012.8
20260905161845 33 173 1.6 4.8 0.00 0.00 0.00 70 1012.8
20260905161344 32 197 0.0 1.6 0.00 0.00 0.00 72 1012.3
20260905160843 32 202 0.0 0.0 0.00 0.00 0.00 75 1012.5
20260905160337 32 173 3.2 3.2 0.00 0.00 0.00 78 1012.8
20260905155831 31 212 3.2 4.8 0.00 0.00 0.00 78 1012.6
20260905155331 31 202 1.6 3.2 0.00 0.00 0.00 78 1012.3
20260905154825 30 201 0.0 4.8 0.00 0.00 0.00 82 1012.6
20260905154321 31 187 1.6 3.2 0.00 0.00 0.00 85 1012.7
20260905153816 31 209 4.8 8.0 0.00 0.00 0.00 82 1012.6
20260905153313 32 210 1.6 3.2 0.00 0.00 0.00 79 1012.8
20260905152812 32 179 0.0 1.6 0.00 0.00 0.00 82 1012.7
20260905152311 31 178 0.0 0.0 0.00 0.00 0.00 83 1012.7
20260905151806 30 243 4.8 4.8 0.00 0.00 0.00 84 1012.6
20260905151302 30 187 0.0 4.8 0.00 0.00 0.00 86 1012.9
20260905150802 31 194 3.2 4.8 0.00 0.00 0.00 85 1012.8
20260905150302 30 181 0.0 3.2 0.00 0.00 0.00 89 1012.9
20260905145759 30 193 0.0 1.6 0.00 0.00 0.00 88 1012.7
20260905145253 30 185 0.0 1.6 0.00 0.00 0.00 90 1012.6
20260905144752 30 200 3.2 3.2 0.00 0.00 0.00 89 1012.8
20260905144248 30 184 0.0 3.2 0.00 0.00 0.00 91 1012.8
20260905143746 30 191 0.0 1.6 0.00 0.00 0.00 91 1012.8
20260905143241 30 186 0.0 0.0 0.00 0.00 0.00 92 1012.8
20260905142739 29 200 0.0 3.2 0.00 0.00 0.00 94 1012.8
20260905142234 30 189 1.6 3.2 0.00 0.00 0.00 93 1012.8
20260905141730 30 183 0.0 0.0 0.00 0.00 0.00 91 1012.7
20260905141226 30 183 0.0 0.0 0.00 0.00 0.00 93 1012.6
20260905140721 30 183 0.0 0.0 0.00 0.00 0.00 93 1012.7
20260905140215 30 183 0.0 0.0 0.00 0.00 0.00 93 1012.5
20260905135709 29 180 0.0 0.0 0.00 0.00 0.00 94 1012.4
20260905135206 28 170 0.0 0.0 0.00 0.00 0.00 97 1012.6
20260905134704 28 151 0.0 1.6 0.00 0.00 0.00 99 1012.4
20260905134204 27 171 0.0 0.0 0.00 0.00 0.00 99 1012.6
20260905133659 27 169 0.0 1.6 0.00 0.00 0.00 99 1012.5
20260905133154 27 170 0.0 0.0 0.00 0.00 0.00 99 1012.6
20260905132653 26 157 0.0 0.0 0.00 0.00 0.00 99 1012.6
20260905132148 26 171 0.0 0.0 0.00 0.00 0.00 99 1012.7
20260905131644 26 162 0.0 0.0 0.00 0.00 0.00 99 1012.6
20260905131138 26 171 0.0 0.0 0.00 0.00 0.00 99 1012.5
20260905130632 26 171 0.0 0.0 0.00 0.00 0.00 99 1012.7
20260905130126 26 171 0.0 0.0 0.00 0.00 0.00 99 1012.4
20260905125621 26 171 0.0 0.0 0.00 0.00 0.00 99 1012.4
20260905125117 25 171 0.0 0.0 0.00 0.00 0.00 99 1012.4
20260905124613 25 191 0.0 0.0 0.00 0.00 0.00 99 1012.4
20260905124108 24 192 0.0 0.0 0.00 0.00 0.00 99 1012.2
20260905123558 24 192 0.0 0.0 0.00 0.00 0.00 99 1012.2
20260905123055 24 192 0.0 0.0 0.00 0.00 0.00 99 1012.0
20260905122555 24 192 0.0 0.0 0.00 0.00 0.00 99 1012.3
20260905122055 24 191 0.0 0.0 0.00 0.00 0.00 99 1012.0
20260905121550 24 191 0.0 0.0 0.00 0.00 0.00 99 1012.2
20260905121045 23 193 0.0 0.0 0.00 0.00 0.00 99 1011.9
20260905120544 23 194 0.0 0.0 0.00 0.00 0.00 99 1012.0
20260905120040 24 194 0.0 0.0 0.00 0.00 0.00 99 1011.9
20260905115538 23 194 0.0 0.0 0.00 0.00 0.00 99 1011.8
20260905115033 23 194 0.0 0.0 0.00 0.00 0.00 99 1011.7
20260905114532 23 194 0.0 0.0 0.00 0.00 0.00 99 1011.6
20260905114032 23 194 0.0 0.0 0.00 0.00 0.00 99 1011.8
20260905113527 23 194 0.0 0.0 0.00 0.00 0.00 99 1011.6
20260905113022 23 194 0.0 0.0 0.00 0.00 0.00 99 1011.3
20260905112518 23 194 0.0 0.0 0.00 0.00 0.00 99 1011.4
20260905112013 23 194 0.0 0.0 0.00 0.00 0.00 99 1011.4
20260905111513 24 194 0.0 0.0 0.00 0.00 0.00 99 1011.7
20260905111007 24 194 0.0 0.0 0.00 0.00 0.00 99 1011.5
20260905110506 24 194 0.0 0.0 0.00 0.00 0.00 99 1011.3
20260905110001 24 194 0.0 0.0 0.00 0.00 0.00 99 1011.3
20260905105455 23 194 0.0 0.0 0.00 0.00 0.00 99 1011.3
20260905104955 24 194 0.0 0.0 0.00 0.00 0.00 99 1011.2
20260905104451 24 192 0.0 0.0 0.00 0.00 0.00 99 1011.2
20260905103945 24 192 0.0 0.0 0.00 0.00 0.00 99 1011.2
20260905103440 24 192 0.0 0.0 0.00 0.00 0.00 99 1011.1
20260905102937 24 192 0.0 0.0 0.00 0.00 0.00 99 1011.1
20260905102432 24 192 0.0 0.0 0.00 0.00 0.00 99 1011.3
20260905101927 24 192 0.0 0.0 0.00 0.00 0.00 99 1011.4
20260905101426 24 192 0.0 0.0 0.00 0.00 0.00 99 1011.3
20260905100921 24 192 0.0 0.0 0.00 0.00 0.00 99 1011.2
20260905100416 24 191 0.0 0.0 0.00 0.00 0.00 99 1011.2
20260905095916 24 194 0.0 0.0 0.00 0.00 0.00 99 1011.2
20260905095411 24 194 0.0 0.0 0.00 0.00 0.00 99 1011.3
20260905094911 24 194 0.0 0.0 0.00 0.00 0.00 99 1011.2
20260905094407 24 194 0.0 0.0 0.00 0.00 0.00 99 1011.2
20260905093905 24 194 0.0 0.0 0.00 0.00 0.00 99 1011.3
20260905093401 24 194 0.0 0.0 0.00 0.00 0.00 99 1011.1
20260905092856 24 194 0.0 0.0 0.00 0.00 0.00 99 1011.1
20260905092351 24 194 0.0 0.0 0.00 0.00 0.00 99 1011.5
20260905091846 24 194 0.0 0.0 0.00 0.00 0.00 99 1011.1
20260905091346 24 194 0.0 0.0 0.00 0.00 0.00 99 1011.4
20260905090845 24 194 0.0 0.0 0.00 0.00 0.00 99 1011.2
20260905090341 25 194 0.0 0.0 0.00 0.00 0.00 99 1011.1
20260905085840 24 194 0.0 0.0 0.00 0.00 0.00 99 1011.3
20260905085340 24 194 0.0 0.0 0.00 0.00 0.00 99 1011.3
20260905084836 24 194 0.0 0.0 0.00 0.00 0.00 99 1011.0
20260905084334 25 194 0.0 0.0 0.00 0.00 0.00 99 1011.0
20260905083829 25 194 0.0 0.0 0.00 0.00 0.00 99 1010.9
20260905083326 24 194 0.0 0.0 0.00 0.00 0.00 99 1011.0
20260905082820 25 194 0.0 0.0 0.00 0.00 0.00 99 1011.0
20260905082317 25 194 0.0 0.0 0.00 0.00 0.00 99 1011.2
20260905081812 25 194 0.0 0.0 0.00 0.00 0.00 99 1011.2
20260905081307 25 194 0.0 0.0 0.00 0.00 0.00 99 1011.4
20260905080805 25 194 0.0 0.0 0.00 0.00 0.00 99 1011.4
20260905080300 25 194 0.0 0.0 0.00 0.00 0.00 99 1011.2
20260905075759 25 194 0.0 0.0 0.00 0.00 0.00 99 1011.2
20260905075259 25 194 0.0 0.0 0.00 0.00 0.00 99 1011.4
20260905074758 25 194 0.0 0.0 0.00 0.00 0.00 99 1011.4
20260905074254 25 194 0.0 0.0 0.00 0.00 0.00 99 1011.3
20260905073749 25 194 0.0 0.0 0.00 0.00 0.00 99 1011.3
20260905073244 25 194 0.0 0.0 0.00 0.00 0.00 99 1011.5
20260905072744 25 194 0.0 0.0 0.00 0.00 0.00 99 1011.6
20260905072239 25 194 0.0 0.0 0.00 0.00 0.00 99 1011.7
20260905071736 25 191 0.0 0.0 0.00 0.00 0.00 99 1011.6
20260905071232 25 191 0.0 0.0 0.00 0.00 0.00 99 1011.5
20260905070726 25 193 0.0 0.0 0.00 0.00 0.00 99 1011.6
20260905070223 25 194 0.0 0.0 0.00 0.00 0.00 99 1011.7
20260905065721 25 194 0.0 0.0 0.00 0.00 0.00 99 1011.5
20260905065215 25 194 0.0 0.0 0.00 0.00 0.00 99 1011.8
20260905064711 25 194 0.0 0.0 0.00 0.00 0.00 99 1011.8
20260905064207 25 194 0.0 0.0 0.00 0.00 0.00 99 1011.7
20260905063704 25 194 0.0 0.0 0.00 0.00 0.00 99 1011.5
20260905063201 25 194 0.0 0.0 0.00 0.00 0.00 99 1011.7
20260905062657 25 194 0.0 0.0 0.00 0.00 0.00 99 1011.7
20260905062156 25 194 0.0 0.0 0.00 0.00 0.00 99 1012.0
20260905061656 25 194 0.0 0.0 0.00 0.00 0.00 99 1011.9
20260905061150 25 194 0.0 0.0 0.00 0.00 0.00 99 1011.9
20260905060646 26 184 0.0 0.0 0.00 0.00 0.00 99 1011.9
20260905060142 26 184 0.0 0.0 0.00 0.00 0.00 99 1011.9
20260905055641 26 158 0.0 1.6 0.00 0.00 0.00 99 1011.9
20260905055136 26 177 0.0 0.0 0.00 0.00 0.00 99 1011.9
20260905054632 26 183 0.0 0.0 0.00 0.00 0.00 99 1012.0
20260905054127 26 188 0.0 0.0 0.00 0.00 0.00 99 1011.8
20260905053627 26 191 0.0 0.0 0.00 0.00 0.00 99 1011.9
20260905053122 26 191 0.0 0.0 0.00 0.00 0.00 99 1012.0
20260905052621 26 192 0.0 0.0 0.00 0.00 0.00 99 1011.7
20260905052116 26 186 0.0 0.0 0.00 0.00 0.00 99 1011.9
20260905051611 26 185 0.0 0.0 0.00 0.00 0.00 99 1011.9
20260905051108 26 188 0.0 0.0 0.00 0.00 0.00 99 1011.8
20260905050603 26 193 0.0 0.0 0.00 0.00 0.00 99 1011.8
20260905050055 26 193 0.0 1.6 0.00 0.00 0.00 99 1011.9
20260905045554 26 185 0.0 0.0 0.00 0.76 0.76 99 1011.8
20260905045050 26 191 0.0 0.0 0.00 0.76 0.76 99 1011.7
20260905044550 26 191 0.0 0.0 0.00 0.76 0.76 99 1011.9
20260905044044 26 191 0.0 0.0 0.00 0.76 0.76 99 1011.9
20260905043543 26 191 0.0 0.0 0.00 0.76 0.76 99 1012.0
20260905043039 26 190 0.0 0.0 0.00 0.76 0.76 99 1011.9
20260905042538 26 203 0.0 0.0 0.00 0.76 0.76 99 1012.1
20260905042033 26 203 0.0 0.0 0.00 0.76 0.76 99 1011.9
20260905041528 26 204 0.0 0.0 0.00 0.76 0.76 99 1011.8
20260905041024 27 206 0.0 1.6 0.00 0.76 0.76 99 1012.1
20260905040523 27 200 0.0 3.2 0.00 0.76 0.76 98 1012.3
20260905040022 27 192 0.0 0.0 0.00 0.76 0.76 98 1012.2
20260905035517 27 200 0.0 0.0 0.00 0.76 0.76 98 1012.2
20260905035014 27 201 0.0 1.6 0.00 0.76 0.76 98 1012.1
20260905034510 27 190 0.0 0.0 0.00 0.76 0.76 97 1012.4
20260905034009 27 194 1.6 3.2 0.00 0.76 0.76 96 1012.1
20260905033503 27 183 1.6 4.8 0.00 0.76 0.76 96 1012.3
20260905032959 27 179 0.0 0.0 0.00 0.76 0.76 96 1012.1
20260905032454 27 164 0.0 1.6 0.00 0.76 0.76 96 1012.2
20260905031948 27 171 0.0 0.0 0.00 0.76 0.76 97 1012.3
20260905031444 27 191 0.0 0.0 0.00 0.76 0.76 96 1012.1
20260905030939 27 191 0.0 0.0 0.00 0.76 0.76 95 1012.2
20260905030435 28 191 0.0 1.6 0.00 0.76 0.76 93 1012.1
20260905025934 28 173 0.0 0.0 0.00 0.76 0.76 93 1012.0
20260905025429 28 169 0.0 0.0 0.00 0.76 0.76 93 1011.9
20260905024926 28 172 0.0 0.0 0.00 0.76 0.76 92 1012.1
20260905024426 28 165 0.0 1.6 0.00 0.76 0.76 92 1012.0
20260905023921 28 177 1.6 3.2 0.00 0.76 0.76 92 1011.8
20260905023416 28 175 1.6 3.2 0.00 0.76 0.76 92 1011.8
20260905022915 28 171 0.0 3.2 0.00 0.76 0.76 91 1011.8
20260905022410 28 172 0.0 1.6 0.00 0.76 0.76 91 1011.8
20260905021906 28 167 1.6 3.2 0.00 0.76 0.76 90 1011.7
20260905021400 28 161 3.2 4.8 0.00 0.76 0.76 90 1011.7
20260905020856 28 180 1.6 3.2 0.00 0.76 0.76 89 1011.4
20260905020349 28 177 0.0 4.8 0.00 0.76 0.76 89 1011.4
20260905015844 29 152 1.6 3.2 0.00 0.76 0.76 88 1011.3
20260905015342 29 153 1.6 3.2 0.00 0.76 0.76 88 1011.6
20260905014837 29 136 1.6 3.2 0.00 0.76 0.76 87 1011.2
20260905014333 29 173 0.0 1.6 0.00 0.76 0.76 87 1011.2
20260905013828 29 148 1.6 4.8 0.00 0.76 0.76 86 1011.1
20260905013324 29 181 1.6 3.2 0.00 0.76 0.76 86 1011.1
20260905012819 30 179 0.0 3.2 0.00 0.76 0.76 85 1010.9
20260905012315 30 176 0.0 3.2 0.00 0.76 0.76 85 1010.9
20260905011811 30 180 0.0 4.8 0.00 0.76 0.76 84 1011.0
20260905011306 30 167 0.0 3.2 0.00 0.76 0.76 84 1010.8
20260905010801 30 180 0.0 3.2 0.00 0.76 0.76 83 1010.8
20260905010256 30 149 0.0 3.2 0.00 0.76 0.76 83 1010.8
20260905005753 30 171 1.6 3.2 0.00 0.76 0.76 82 1010.7
20260905005253 30 155 1.6 8.0 0.00 0.76 0.76 82 1010.7
20260905004753 30 178 0.0 4.8 0.00 0.76 0.76 81 1010.8
20260905004248 30 177 1.6 3.2 0.00 0.76 0.76 80 1010.9
20260905003742 30 177 1.6 14.5 0.00 0.76 0.76 79 1010.6
20260905003238 31 85 4.8 8.0 0.00 0.76 0.76 78 1010.7
20260905002734 31 171 1.6 3.2 0.00 0.76 0.76 78 1010.6
20260905002234 31 144 3.2 4.8 0.00 0.76 0.76 77 1010.5
20260905001729 31 168 3.2 4.8 0.00 0.76 0.76 77 1010.3
20260905001228 31 170 3.2 3.2 0.00 0.76 0.76 77 1010.5
20260905000723 31 197 3.2 11.3 0.00 0.76 0.76 77 1010.3
20260905000219 32 177 3.2 8.0 0.00 0.76 0.76 76 1010.2
20260904235714 32 193 1.6 1.6 0.00 0.76 0.76 75 1010.2
20260904235209 32 186 3.2 11.3 0.00 0.76 0.76 75 1010.0
20260904234703 32 171 3.2 4.8 0.00 0.76 0.76 75 1010.2
20260904234159 32 168 0.0 3.2 0.00 0.76 0.76 75 1010.3
20260904233654 32 177 3.2 11.3 0.00 0.76 0.76 75 1010.1
20260904233150 32 211 4.8 12.9 0.00 0.76 0.76 75 1010.2
20260904232647 32 174 4.8 9.7 0.00 0.76 0.76 75 1010.3
20260904232143 32 159 4.8 4.8 0.00 0.76 0.76 75 1010.2
20260904231638 32 177 1.6 8.0 0.00 0.76 0.76 76 1010.2
20260904231133 32 155 1.6 11.3 0.00 0.76 0.76 75 1010.1
20260904230632 32 160 3.2 4.8 0.00 0.76 0.76 73 1010.3
20260904230128 33 191 4.8 11.3 0.00 0.76 0.76 71 1010.0
20260904225626 33 120 0.0 9.7 0.00 0.76 0.76 68 1010.3
20260904225120 33 163 1.6 3.2 0.00 0.76 0.76 68 1010.3
20260904224615 34 196 1.6 11.3 0.00 0.76 0.76 67 1009.9
20260904224110 34 198 0.0 1.6 0.00 0.76 0.76 69 1010.5
20260904223609 33 178 3.2 4.8 0.00 0.76 0.76 67 1010.2
20260904223105 34 180 3.2 4.8 0.00 0.76 0.76 68 1010.3
20260904222601 34 166 3.2 9.7 0.00 0.76 0.76 68 1010.3
20260904222055 34 40 1.6 8.0 0.00 0.76 0.76 69 1010.3
20260904221550 33 193 0.0 1.6 0.00 0.76 0.76 71 1010.1
20260904221045 33 125 3.2 4.8 0.00 0.76 0.76 68 1010.4
20260904220544 34 187 1.6 4.8 0.00 0.76 0.76 67 1010.3
20260904220040 33 191 0.0 1.6 0.00 0.76 0.76 69 1010.3
20260904215534 33 164 1.6 8.0 0.00 0.76 0.76 70 1010.3
20260904215030 34 141 1.6 4.8 0.00 0.76 0.76 69 1010.4
20260904214525 34 202 1.6 1.6 0.00 0.76 0.76 69 1010.5
20260904214021 34 202 1.6 3.2 0.00 0.76 0.76 71 1010.6
20260904213518 33 201 0.0 4.8 0.00 0.76 0.76 71 1010.6
20260904213016 33 196 3.2 3.2 0.00 0.76 0.76 70 1010.6
20260904212515 33 186 3.2 3.2 0.00 0.76 0.76 70 1010.7
20260904212010 33 190 3.2 8.0 0.00 0.76 0.76 71 1010.7
20260904211504 33 201 3.2 9.7 0.00 0.76 0.76 70 1010.7
20260904211000 33 220 4.8 9.7 0.00 0.76 0.76 72 1010.9
20260904210459 33 199 0.0 0.0 0.00 0.76 0.76 73 1010.7
20260904205954 33 184 0.0 4.8 0.00 0.76 0.76 72 1010.7
20260904205450 33 186 4.8 8.0 0.00 0.76 0.76 70 1010.8
20260904204947 33 175 0.0 8.0 0.00 0.76 0.76 72 1011.1
20260904204443 34 187 0.0 3.2 0.00 0.76 0.76 73 1011.0
20260904203938 33 209 1.6 3.2 0.00 0.76 0.76 71 1011.2
20260904203435 33 191 0.0 3.2 0.00 0.76 0.76 74 1011.2
20260904202930 33 197 0.0 1.6 0.00 0.76 0.76 76 1011.3
20260904202426 33 216 3.2 4.8 0.00 0.76 0.76 75 1011.3
20260904201922 33 188 0.0 3.2 0.00 0.76 0.76 73 1011.5
20260904201417 33 167 0.0 1.6 0.00 0.76 0.76 75 1011.6
20260904200913 33 162 3.2 8.0 0.00 0.76 0.76 76 1011.6
20260904200411 32 92 1.6 3.2 0.00 0.76 0.76 75 1011.8
20260904195906 33 181 1.6 1.6 0.00 0.76 0.76 75 1011.6
20260904195404 32 161 1.6 3.2 0.00 0.76 0.76 74 1011.8
20260904194859 32 178 3.2 3.2 0.00 0.76 0.76 75 1011.7
20260904194358 32 173 0.0 4.8 0.00 0.76 0.76 77 1012.0
20260904193854 32 173 0.0 1.6 0.00 0.76 0.76 80 1011.9
20260904193349 31 203 1.6 1.6 0.00 0.76 0.76 81 1012.2
20260904192844 31 174 1.6 3.2 0.00 0.76 0.76 84 1012.1
20260904192339 30 185 0.0 1.6 0.00 0.76 0.76 86 1012.0
20260904191836 30 267 1.6 4.8 0.00 0.76 0.76 88 1011.8
20260904191332 28 200 0.0 1.6 0.00 0.76 0.76 95 1012.2
20260904190828 27 48 1.6 9.7 0.00 0.76 0.76 99 1012.1
20260904190324 27 201 0.0 1.6 0.00 0.76 0.76 99 1012.2
20260904185820 26 18 1.6 3.2 0.00 0.76 0.76 99 1012.2
20260904185315 26 167 0.0 1.6 0.00 0.76 0.76 99 1012.5
20260904184815 26 179 0.0 0.0 0.00 0.76 0.76 99 1012.5
20260904184310 26 163 0.0 0.0 0.00 0.76 0.76 99 1013.1
20260904183805 26 204 0.0 0.0 0.00 0.76 0.76 99 1013.2
20260904183300 26 199 0.0 0.0 0.00 0.76 0.76 99 1013.4
20260904182755 25 191 0.0 0.0 0.00 0.76 0.76 99 1013.5
20260904182250 25 190 0.0 0.0 0.00 0.76 0.76 99 1013.8
20260904181746 25 167 0.0 0.0 0.00 0.76 0.76 99 1013.4
20260904181246 25 186 0.0 0.0 0.00 0.76 0.76 99 1013.4
20260904180741 25 172 0.0 3.2 0.00 0.76 0.76 99 1013.4
20260904180236 26 176 0.0 0.0 0.00 0.76 0.76 99 1013.4
20260904175735 26 187 0.0 0.0 0.00 0.76 0.76 99 1013.3
20260904175234 26 190 0.0 0.0 0.00 0.76 0.76 99 1013.4
20260904174729 26 174 0.0 1.6 0.00 0.76 0.76 99 1013.5
20260904174225 26 176 0.0 0.0 0.00 0.76 0.76 99 1013.3
20260904173721 26 172 0.0 0.0 0.00 0.76 0.76 99 1013.2
20260904173221 26 177 0.0 0.0 0.00 0.76 0.76 99 1013.1
20260904172718 26 183 0.0 0.0 0.00 0.76 0.76 99 1013.4
20260904172216 26 173 0.0 0.0 0.00 0.76 0.76 99 1013.5
20260904171712 25 169 0.0 0.0 0.00 0.76 0.76 99 1013.6
20260904171206 25 174 0.0 0.0 0.00 0.76 0.76 99 1013.6
20260904170703 25 174 0.0 0.0 0.00 0.76 0.76 99 1013.6
20260904170159 25 182 0.0 0.0 0.00 0.76 0.76 99 1013.6
20260904165657 24 179 0.0 0.0 0.00 0.76 0.76 99 1013.5